Tracking 27188 objects as of 1-Apr-2023
HD Live streaming from Space Station
objects crossing your sky now

STARLINK-3045

Track STARLINK-3045 now!
10-day predictions
STARLINK-3045 is classified as:


NORAD ID: 49173
Int'l Code: 2021-082AV
Perigee: 576.9 km
Apogee: 581.7 km
Inclination: 70.0 °
Period: 96.1 minutes
Semi major axis: 6950 km
RCS: Unknown
Launch date: September 14, 2021
Source: United States (US)
Launch site: AIR FORCE WESTERN TEST RANGE (AFWTR)
Your satellite tracking list
Your tracking list is empty




NASA's NSSDC Master Catalog

Two Line Element Set (TLE):
1 49173U 21082AV  23090.91667824  .00076894  00000-0  63869-2 0  9992
2 49173  69.9995 101.8156 0003404 265.8465  69.1562 14.98297741 85624
Source of the keplerian elements: AFSPC